This demonstration page uses our WeatherBlox Daily Observations layout. Learn more.

Left ArrowRight Arrow

Hourly Observations for September 20, 2015

Temp ( °F °C ) Dew Point ( °F °C ) Humidity (%) Winds ( mph kmh ) Pressure ( in mb ) Visibility ( mi km ) Precip ( " mm )
12:53 am 00:53 Clear 57 13.9 48 8.9 72 72 SSE 8 13 30.06 1018 10 16 0.00 0.00
1:53 am 01:53 Clear 56 13.3 48 8.9 75 75 SSE 9 15 30.05 1018 10 16 0.00 0.00
2:53 am 02:53 Clear 55 12.8 49 9.4 80 80 S 8 13 30.04 1017 10 16 0.00 0.00
3:53 am 03:53 Clear 54 12.2 49 9.4 83 83 S 9 15 30.04 1017 10 16 0.00 0.00
4:53 am 04:53 Clear 54 12.2 49 9.4 83 83 S 10 17 30.01 1016 10 16 0.00 0.00
5:53 am 05:53 Clear 54 12.2 49 9.4 83 83 S 9 15 30.02 1017 10 16 0.00 0.00
6:53 am 06:53 Clear 53 11.7 49 9.4 86 86 S 9 15 30.04 1017 10 16 0.00 0.00
7:53 am 07:53 Sunny 53 11.7 49 9.4 86 86 S 8 13 30.05 1018 10 16 0.00 0.00
8:53 am 08:53 Sunny 57 13.9 51 10.6 81 81 S 10 17 30.05 1018 10 16 0.00 0.00
9:53 am 09:53 Sunny 63 17.2 53 11.7 70 70 S 14 22 30.04 1017 10 16 0.00 0.00
10:53 am 10:53 Sunny 69 20.6 54 12.2 59 59 S 14 22 30.03 1017 10 16 0.00 0.00
11:53 am 11:53 Sunny 73 22.8 54 12.2 51 51 S 12 19 30.01 1016 10 16 0.00 0.00
12:53 pm 12:53 Sunny 76 24.4 55 12.8 48 48 S 14 22 29.98 1015 10 16 0.00 0.00
1:53 pm 13:53 Sunny 78 25.6 55 12.8 45 45 S 15 24 29.96 1015 10 16 0.00 0.00
2:53 pm 14:53 Sunny 80 26.7 55 12.8 42 42 S 15 24 29.93 1014 10 16 0.00 0.00
3:53 pm 15:53 Sunny 80 26.7 55 12.8 42 42 S 17 28 29.92 1013 10 16 0.00 0.00
4:53 pm 16:53 Sunny 80 26.7 56 13.3 44 44 S 14 22 29.92 1013 10 16 0.00 0.00
5:53 pm 17:53 Sunny 80 26.7 55 12.8 42 42 S 8 13 29.91 1013 10 16 0.00 0.00
6:53 pm 18:53 Sunny 78 25.6 55 12.8 45 45 S 9 15 29.91 1013 10 16 0.00 0.00
7:53 pm 19:53 Clear 74 23.3 54 12.2 50 50 SSE 10 17 29.93 1013 10 16 0.00 0.00
8:53 pm 20:53 Clear 70 21.1 53 11.7 55 55 SSE 10 17 29.94 1014 10 16 0.00 0.00
9:53 pm 21:53 Clear 68 20 53 11.7 59 59 SSE 13 20 29.94 1014 10 16 0.00 0.00
10:53 pm 22:53 Clear 66 18.9 53 11.7 63 63 S 10 17 29.94 1014 10 16 0.00 0.00
11:53 pm 23:53 Clear 64 17.8 54 12.2 70 70 S 8 13 29.93 1014 10 16 0.00 0.00

Powered by AerisWeather